15min,AgWx,beryljct,423,15SEP2020:00:00:00,53.5,12.87,49.3,48.3,50.3,52.4,48.0,50,57,41,0.595,32.2,35.0,28.4,1.732,1.3,152,20,5.0,-0.00017,-0.00021,60.0,62.4,14,0,.,.,4.30,0.00,0.00
15min,AgWx,beryljct,423,15SEP2020:00:15:00,52.5,12.86,49.3,48.8,47.7,48.8,46.4,57,65,48,0.562,33.1,35.6,29.9,0,0.2,152,0.2,1.6,-0.00030,-0.00047,59.8,62.3,14,0,.,.,4.30,0.01,0.00
15min,AgWx,beryljct,423,15SEP2020:00:30:00,51.6,12.85,47.0,47.2,47.8,48.9,46.7,52,62,43,0.647,30.7,34.6,27.2,2.696,3.3,117,14,4.8,0.00004,0.00008,59.6,62.3,14,0,.,.,4.30,0.00,0.00
15min,AgWx,beryljct,423,15SEP2020:00:45:00,50.7,12.85,46.2,44.8,45.7,47.1,44.7,64,68,59,0.663,34.2,35.7,32.8,2.192,2.0,156,60,4.5,-0.00011,-0.00013,59.4,62.3,14,0,.,.,4.30,0.00,0.00
15min,AgWx,beryljct,423,15SEP2020:01:00:00,49.9,12.83,47.4,47.2,46.7,47.6,44.8,53,65,46,0.529,30.1,33.8,27.9,0.855,2.3,350,23,4.3,-0.00005,-0.00004,59.2,62.2,14,0,.,.,4.30,0.00,0.00
15min,AgWx,beryljct,423,15SEP2020:01:15:00,49.3,12.83,45.6,46.0,46.4,47.4,45.6,45,52,43,0.549,26.2,29.4,24.5,1.863,2.7,324,22,4.2,0.00001,0.00004,59.0,62.1,14,0,.,.,4.31,0.00,0.00
15min,AgWx,beryljct,423,15SEP2020:01:30:00,48.6,12.82,46.7,46.7,45.9,47.7,44.4,53,62,43,0.598,29.6,32.3,25.9,1.666,1.1,300,4.9,2.0,-0.00017,-0.00023,58.8,62.1,14,0,.,.,4.31,0.00,0.00
15min,AgWx,beryljct,423,15SEP2020:01:45:00,48.0,12.81,47.0,47.0,47.4,48.3,45.9,46,60,41,0.541,27.5,32.9,25.3,0.965,0.8,315,12,2.2,-0.00022,-0.00031,58.6,62.0,14,0,.,.,4.31,0.00,0.00
15min,AgWx,beryljct,423,15SEP2020:02:00:00,47.8,12.8,46.4,46.6,47.7,49.5,46.5,47,57,38,0.500,28.3,32.2,24.6,1.447,1.3,209,63,3.4,-0.00015,-0.00020,58.4,62.0,14,0,.,.,4.31,0.00,0.00
15min,AgWx,beryljct,423,15SEP2020:02:15:00,47.3,12.8,43.9,43.6,43.9,46.6,42.3,60,72,46,0.568,30.9,34.4,27.1,1.337,1.5,172,2.8,2.6,-0.00014,-0.00018,58.2,61.9,14,0,.,.,4.31,0.00,0.00
15min,AgWx,beryljct,423,15SEP2020:02:30:00,46.7,12.79,44.6,43.9,43.5,44.8,41.8,55,62,51,0.520,28.6,31.1,27.7,3.288,3.5,183,4.3,4.5,0.00003,0.00006,58.0,61.9,14,0,.,.,4.31,0.00,0.00
15min,AgWx,beryljct,423,15SEP2020:02:45:00,46.1,12.78,47.6,45.0,43.1,45.0,41.7,61,70,50,0.507,30.6,32.9,27.4,3.595,2.8,208,3.8,3.8,-0.00004,-0.00003,57.8,61.8,14,0,.,.,4.31,0.00,0.00
15min,AgWx,beryljct,423,15SEP2020:03:00:00,46.0,12.77,49.6,48.3,46.9,48.8,44.6,45,58,37,0.469,26.6,30.8,24.0,3.793,4.0,194,8.7,4.8,0.00012,0.00018,57.6,61.8,14,0,.,.,4.31,0.00,0.00
15min,AgWx,beryljct,423,15SEP2020:03:15:00,46.0,12.76,44.7,44.0,46.4,48.8,43.9,50,64,40,0.595,28.4,32.5,25.5,0,2.2,179,19,3.9,-0.00005,-0.00003,57.4,61.7,14,0,.,.,4.31,0.00,0.00
15min,AgWx,beryljct,423,15SEP2020:03:30:00,45.7,12.75,43.0,42.7,43.4,45.0,41.7,58,65,49,0.457,29.5,32.4,24.9,2.521,1.2,342,36,3.6,-0.00016,-0.00022,57.2,61.6,14,0,.,.,4.31,0.00,0.00
15min,AgWx,beryljct,423,15SEP2020:03:45:00,45.2,12.74,39.2,40.6,42.2,43.3,40.6,52,61,47,0.470,25.9,28.7,24.0,2.368,2.6,3.8,14,3.5,-0.00002,-0.00000,57.0,61.5,14,0,.,.,4.31,0.00,0.00
15min,AgWx,beryljct,423,15SEP2020:04:00:00,44.3,12.74,39.1,39.5,39.9,40.5,39.2,52,59,47,0.455,23.5,26.4,21.6,0,2.0,346,17,3.4,-0.00007,-0.00006,56.8,61.5,14,0,.,.,4.31,0.00,0.00
15min,AgWx,beryljct,423,15SEP2020:04:15:00,43.6,12.71,39.9,42.0,40.4,42.7,39.0,56,61,52,0.545,26.2,29.2,23.7,2.105,1.2,280,8.5,2.7,-0.00015,-0.00020,56.7,61.4,14,0,.,.,4.31,0.00,0.00
15min,AgWx,beryljct,423,15SEP2020:04:30:00,43.2,12.72,41.3,41.0,41.9,44.0,40.7,63,70,53,0.595,30.1,31.7,27.7,1.008,1.3,255,16,2.4,-0.00016,-0.00021,56.5,61.3,14,0,.,.,4.31,0.00,0.00
15min,AgWx,beryljct,423,15SEP2020:04:45:00,42.8,12.69,42.2,41.6,42.0,43.0,41.0,64,69,59,0.575,30.6,31.6,29.4,1.973,1.0,242,2.7,2.5,-0.00019,-0.00026,56.3,61.2,14,0,.,.,4.31,0.00,0.00
15min,AgWx,beryljct,423,15SEP2020:05:00:00,42.7,12.7,41.0,41.3,41.7,42.5,41.0,64,68,61,0.600,30.5,31.5,29.5,3.31,2.1,223,8.0,3.3,-0.00010,-0.00012,56.1,61.2,14,0,.,.,4.31,0.00,0.00
15min,AgWx,beryljct,423,15SEP2020:05:15:00,42.6,12.7,41.6,40.5,41.0,42.1,40.0,69,73,63,0.614,31.5,32.3,30.3,2.938,2.4,219,7.9,3.4,-0.00009,-0.00010,55.9,61.1,14,0,.,.,4.31,0.00,0.00
15min,AgWx,beryljct,423,15SEP2020:05:30:00,42.5,12.68,41.6,41.9,41.8,44.6,40.6,65,71,52,0.599,30.8,32.0,28.0,2.981,3.3,219,6.6,3.9,-0.00002,-0.00001,55.8,61.0,14,0,.,.,4.31,0.00,0.00
15min,AgWx,beryljct,423,15SEP2020:05:45:00,42.3,12.69,39.7,39.3,39.7,42.2,37.5,63,72,55,0.462,28.1,31.7,24.4,2.653,2.0,157,24,4.3,0.00016,0.00027,55.6,60.9,14,0,.,.,4.31,0.00,0.00
15min,AgWx,beryljct,423,15SEP2020:06:00:00,41.7,12.68,37.5,37.5,38.3,39.3,37.5,60,68,53,0.518,25.4,28.0,23.0,0.46,1.2,120,2.1,3.0,0.00011,0.00019,55.4,60.8,14,0,.,.,4.31,0.00,0.00
15min,AgWx,beryljct,423,15SEP2020:06:15:00,41.1,12.68,39.6,38.6,37.9,38.6,37.4,65,71,58,0.560,27.1,29.9,25.0,1.578,1.7,301,64,2.9,0.00013,0.00022,55.3,60.8,14,2,.,.,4.31,0.00,0.00
15min,AgWx,beryljct,423,15SEP2020:06:30:00,40.7,12.69,40.5,39.9,39.8,40.5,38.7,62,70,54,0.454,27.9,30.5,24.8,0.833,0.5,300,0.9,1.4,0.00010,0.00013,55.1,60.7,14,10,.,.,4.31,0.00,0.00
15min,AgWx,beryljct,423,15SEP2020:06:45:00,40.7,12.71,40.4,40.1,39.6,40.1,38.9,53,57,51,0.438,24.1,25.2,23.1,0,1.1,315,13,1.8,0.00030,0.00039,55.0,60.6,14,39,.,.,4.31,0.00,0.00
15min,AgWx,beryljct,423,15SEP2020:07:00:00,41.3,12.76,40.7,40.1,40.1,40.3,39.9,59,78,51,0.637,26.9,33.6,23.5,2.039,0.6,306,45,2.1,0.00042,0.00049,54.8,60.5,14,80,.,.,4.30,0.00,0.00
15min,AgWx,beryljct,423,15SEP2020:07:15:00,42.4,12.79,43.0,42.3,40.8,42.3,40.1,75,79,66,0.600,33.4,34.8,31.5,1.973,1.9,168,3.8,2.6,0.00061,0.00072,54.7,60.4,14,126,.,.,4.30,0.00,0.00
15min,AgWx,beryljct,423,15SEP2020:07:30:00,44.2,12.93,45.0,44.7,43.9,44.7,42.3,62,68,58,0.637,31.8,34.6,29.6,2.192,1.9,164,14,2.8,0.00088,0.00104,54.6,60.4,14,171,.,.,4.30,0.00,0.00
15min,AgWx,beryljct,423,15SEP2020:07:45:00,46.7,13.17,48.6,48.2,46.2,48.2,44.7,63,66,57,0.687,34.4,35.8,32.2,2.609,2.3,145,3.5,3.0,0.00113,0.00134,54.5,60.3,14,219,.,.,4.30,0.00,0.00
15min,AgWx,beryljct,423,15SEP2020:08:00:00,49.6,13.53,51.3,51.0,49.8,51.0,48.2,58,63,53,0.707,35.6,38.3,33.6,2.587,2.4,134,5.6,3.4,0.00146,0.00172,54.4,60.2,14,269,.,.,4.30,0.00,0.00
15min,AgWx,beryljct,423,15SEP2020:08:15:00,52.8,14.11,53.9,53.5,52.3,53.6,51.0,52,58,48,0.694,35.4,37.7,33.4,1.995,2.1,133,5.6,2.7,0.00177,0.00207,54.3,60.1,14,319,.,.,4.30,0.00,0.00
15min,AgWx,beryljct,423,15SEP2020:08:30:00,56.0,14.36,57.4,56.7,55.1,56.7,53.6,51,56,46,0.783,37.4,40.8,34.6,2.061,1.9,127,7.6,2.6,0.00211,0.00242,54.3,60.0,14,369,.,.,4.29,0.00,0.00
15min,AgWx,beryljct,423,15SEP2020:08:45:00,59.2,14.29,59.8,59.6,58.1,59.6,56.7,49,55,45,0.861,39.0,42.4,35.7,2.148,2.0,120,12,2.7,0.00248,0.00284,54.3,59.9,14,419,.,.,4.29,0.00,0.00
15min,AgWx,beryljct,423,15SEP2020:09:00:00,62.4,14.22,61.8,61.5,60.7,61.5,59.7,47,53,40,0.961,40.4,44.2,35.9,1.403,2.2,111,6.1,3.0,0.00285,0.00327,54.4,59.9,14,468,.,.,4.29,0.00,0.00
15min,AgWx,beryljct,423,15SEP2020:09:15:00,65.4,14.16,64.1,63.8,62.7,63.8,61.5,46,54,40,0.969,41.6,46.7,38.1,1.469,1.7,93,8.6,2.6,0.00317,0.00357,54.5,59.8,14,515,.,.,4.28,0.00,0.00
15min,AgWx,beryljct,423,15SEP2020:09:30:00,68.3,14.14,65.0,65.0,64.4,65.1,63.8,39,49,34,0.809,38.8,44.4,35.5,2.521,1.7,80,9.4,2.7,0.00351,0.00396,54.6,59.7,14,559,.,.,4.28,0.00,0.00
15min,AgWx,beryljct,423,15SEP2020:09:45:00,70.7,14.16,66.8,67.0,65.9,67.0,65.0,40,51,32,0.733,40.7,47.5,36.6,1.293,1.9,94,11,3.0,0.00384,0.00435,54.8,59.6,14,601,.,.,4.28,0.00,0.00
15min,AgWx,beryljct,423,15SEP2020:10:00:00,73.1,14.06,69.0,69.2,67.9,69.2,66.9,34,38,29,0.920,38.3,42.4,34.2,0.833,1.0,100,5.3,2.0,0.00409,0.00451,55.0,59.6,14,640,.,.,4.27,0.00,0.00
15min,AgWx,beryljct,423,15SEP2020:10:15:00,75.4,14.04,71.2,71.1,70.0,71.1,69.0,39,49,33,1.153,43.8,50.2,39.1,1.578,1.5,107,7.2,2.3,0.00445,0.00495,55.3,59.5,14,678,.,.,4.27,0.00,0.00
15min,AgWx,beryljct,423,15SEP2020:10:30:00,77.5,13.6,73.0,73.1,72.2,73.1,71.1,37,43,30,1.025,44.2,48.5,39.7,1.118,1.6,121,10,2.9,0.00478,0.00532,55.6,59.5,14,712,.,.,4.26,0.00,0.00
15min,AgWx,beryljct,423,15SEP2020:10:45:00,79.3,13.64,75.0,74.9,73.9,74.9,73.1,32,43,22,0.829,42.0,49.9,33.1,2.017,1.9,126,6.7,2.8,0.00508,0.00571,56.0,59.4,14,742,.,.,4.26,0.00,0.00
15min,AgWx,beryljct,423,15SEP2020:11:00:00,80.8,13.49,76.6,76.6,75.8,76.6,74.9,28,37,22,0.936,40.0,47.8,33.4,2.061,1.7,101,18,2.4,0.00532,0.00597,56.5,59.4,14,771,.,.,4.26,0.00,0.00
15min,AgWx,beryljct,423,15SEP2020:11:15:00,82.4,13.48,78.4,78.3,77.3,78.3,76.5,32,40,23,0.876,44.8,50.4,37.5,2.609,2.3,96,6.3,3.1,0.00561,0.00634,57.0,59.4,14,794,.,.,4.25,0.00,0.00
15min,AgWx,beryljct,423,15SEP2020:11:30:00,83.9,13.45,79.3,79.5,78.9,79.6,78.3,28,37,19,1.040,42.5,50.1,34.2,1.469,2.1,105,7.1,3.2,0.00579,0.00655,57.6,59.3,14,814,.,.,4.25,0.00,0.00
15min,AgWx,beryljct,423,15SEP2020:11:45:00,85.4,13.42,81.1,81.4,80.5,82.0,79.5,23,33,16,0.918,39.2,48.0,30.3,0.417,1.6,123,20,3.2,0.00590,0.00661,58.3,59.3,13,835,.,.,4.25,0.00,0.00
15min,AgWx,beryljct,423,15SEP2020:12:00:00,87.1,13.43,85.2,83.4,83.0,84.1,81.4,21,31,15,0.784,38.7,48.7,30.6,1.754,2.2,185,32,4.7,0.00617,0.00701,59.0,59.3,14,849,.,.,4.25,0.00,0.00
15min,AgWx,beryljct,423,15SEP2020:12:15:00,88.1,13.39,81.8,81.9,82.1,84.0,81.6,20,31,14,0.892,36.7,48.3,27.7,2.258,3.0,129,17,4.5,0.00635,0.00736,59.7,59.3,13,862,.,.,4.25,0.00,0.00
15min,AgWx,beryljct,423,15SEP2020:12:30:00,88.6,13.39,81.6,81.9,82.5,83.3,81.9,20,35,13,1.073,37.0,51.9,27.1,2.28,2.2,133,29,4.2,0.00626,0.00713,60.4,59.4,13,864,.,.,4.25,0.00,0.00
15min,AgWx,beryljct,423,15SEP2020:12:45:00,88.8,13.36,81.0,81.6,82.2,83.2,81.4,23,38,14,1.041,39.5,53.4,29.2,3.508,3.9,46,24,8.1,0.00646,0.00762,61.2,59.4,14,856,.,.,4.25,0.00,0.00
15min,AgWx,beryljct,423,15SEP2020:13:00:00,89.0,13.32,81.8,81.1,81.7,83.1,80.9,26,43,12,0.816,42.8,56.6,25.8,8.81,4.0,84,42,8.8,0.00638,0.00751,61.9,59.5,13,848,.,.,4.25,0.00,0.00
15min,AgWx,beryljct,423,15SEP2020:13:15:00,88.9,13.39,82.4,82.3,82.1,84.2,80.4,23,37,12,0.674,40.3,53.6,26.2,4.231,3.9,133,33,10.5,0.00635,0.00751,62.6,59.5,13,840,.,.,4.25,0.00,0.00
15min,AgWx,beryljct,423,15SEP2020:13:30:00,89.3,13.33,83.2,81.8,81.9,82.7,80.9,26,40,15,0.683,43.0,55.5,29.8,7.936,4.6,112,27,9.4,0.00637,0.00760,63.2,59.6,13,835,.,.,4.26,0.00,0.00
15min,AgWx,beryljct,423,15SEP2020:13:45:00,89.3,13.31,83.0,82.3,82.3,83.1,81.4,22,31,13,0.826,38.7,47.9,26.9,5.196,5.7,149,15,10.3,0.00651,0.00799,63.8,59.7,13,823,.,.,4.26,0.00,0.00
15min,AgWx,beryljct,423,15SEP2020:14:00:00,89.4,13.36,82.9,84.8,82.6,84.9,80.9,23,39,11,0.569,38.7,53.6,25.1,3.573,4.0,68,67,7.6,0.00606,0.00722,64.4,59.8,13,797,.,.,4.26,0.00,0.00
15min,AgWx,beryljct,423,15SEP2020:14:15:00,90.1,13.27,84.5,84.8,83.5,85.1,81.3,17,35,11,0.557,33.2,52.7,24.6,1.556,3.1,81,32,9.9,0.00577,0.00680,64.9,59.9,13,773,.,.,4.26,0.00,0.00
15min,AgWx,beryljct,423,15SEP2020:14:30:00,91.3,13.24,82.6,83.6,83.7,84.9,82.4,20,31,12,1.001,37.1,48.7,25.9,2.828,2.8,90,47,5.4,0.00549,0.00641,65.4,60.0,13,745,.,.,4.25,0.00,0.00
15min,AgWx,beryljct,423,15SEP2020:14:45:00,92.2,13.23,85.1,85.7,84.5,85.8,83.2,19,30,12,0.510,36.5,48.2,26.8,2.74,2.7,201,50,7.5,0.00517,0.00607,65.8,60.1,13,700,.,.,4.26,0.00,0.00
15min,AgWx,beryljct,423,15SEP2020:15:00:00,92.7,13.24,83.4,83.6,84.8,86.0,83.6,17,26,12,1.019,35.5,45.1,25.5,4.034,3.7,203,29,8.1,0.00514,0.00625,66.2,60.2,13,669,.,.,4.25,0.00,0.00
15min,AgWx,beryljct,423,15SEP2020:15:15:00,92.7,13.2,83.0,83.9,83.2,84.2,82.1,24,36,12,0.599,42.3,53.2,25.4,2.696,2.5,124,49,5.5,0.00473,0.00553,66.6,60.4,13,650,.,.,4.26,0.00,0.00
15min,AgWx,beryljct,423,15SEP2020:15:30:00,92.6,13.2,83.7,83.2,82.6,83.8,81.4,29,43,12,0.830,46.1,56.6,26.1,2.609,3.0,70,15,5.2,0.00450,0.00533,66.8,60.5,13,610,.,.,4.25,0.00,0.00
15min,AgWx,beryljct,423,15SEP2020:15:45:00,92.1,13.25,80.7,81.1,81.3,83.4,79.5,30,41,20,1.015,46.8,56.5,36.7,5.152,4.8,96,19,7.3,0.00402,0.00508,67.1,60.6,13,512,.,.,4.26,0.00,0.00
15min,AgWx,beryljct,423,15SEP2020:16:00:00,90.7,13.25,84.2,82.1,81.0,82.6,79.7,29,40,13,0.470,44.8,54.1,25.6,3.398,5.1,115,19,11.2,0.00407,0.00520,67.2,60.8,13,511,.,.,4.26,0.00,0.00
15min,AgWx,beryljct,423,15SEP2020:16:15:00,89.6,13.28,80.7,80.5,81.8,83.6,80.4,26,39,13,1.161,42.7,53.8,26.4,3.924,3.6,130,16,5.2,0.00313,0.00399,67.3,60.9,13,414,.,.,4.26,0.00,0.00
15min,AgWx,beryljct,423,15SEP2020:16:30:00,88.1,13.28,83.5,83.0,81.8,83.2,80.0,25,38,14,0.605,41.6,52.5,27.9,5.546,4.1,138,19,9.7,0.00252,0.00344,67.4,61.1,13,323,.,.,4.26,0.00,0.00
15min,AgWx,beryljct,423,15SEP2020:16:45:00,87.6,13.31,85.0,85.6,83.8,85.6,80.6,15,30,11,0.501,30.9,46.7,24.4,2.039,3.7,154,37,6.2,0.00275,0.00373,67.4,61.2,13,354,.,.,4.26,0.00,0.00
15min,AgWx,beryljct,423,15SEP2020:17:00:00,87.8,13.28,84.9,85.3,85.2,85.6,84.6,12,18,11,0.489,26.6,36.2,24.1,2.148,1.9,311,46,3.9,0.00189,0.00245,67.4,61.4,13,312,.,.,4.26,0.00,0.00
15min,AgWx,beryljct,423,15SEP2020:17:15:00,88.1,13.29,84.9,85.1,85.3,85.8,84.1,12,17,11,0.454,26.0,35.4,24.2,1.271,2.7,8.5,19,5.5,0.00171,0.00244,67.3,61.5,13,258,.,.,4.26,0.00,0.00
15min,AgWx,beryljct,423,15SEP2020:17:30:00,87.8,13.3,83.3,83.5,83.5,85.1,81.1,16,32,11,0.632,32.3,49.4,24.3,2.587,1.6,106,37,2.7,0.00103,0.00144,67.2,61.7,13,207,.,.,4.26,0.00,0.00
15min,AgWx,beryljct,423,15SEP2020:17:45:00,86.7,13.31,79.7,81.5,81.7,83.5,79.8,24,43,13,0.996,40.1,56.7,27.7,2.828,2.8,108,16,3.6,0.00077,0.00118,67.2,61.8,13,155,.,.,4.26,0.00,0.00
15min,AgWx,beryljct,423,15SEP2020:18:00:00,84.8,13.2,81.9,82.0,81.0,82.3,79.6,22,33,15,0.582,37.3,48.5,29.9,2.192,2.5,131,7.9,3.3,0.00056,0.00088,67.0,61.9,13,113,.,.,4.26,0.01,0.00
15min,AgWx,beryljct,423,15SEP2020:18:15:00,82.8,13.1,77.2,76.8,79.6,82.1,76.5,21,30,15,0.681,35.3,44.3,29.6,2.17,1.5,134,8.8,2.2,0.00014,0.00026,66.9,62.0,13,62,.,.,4.27,0.01,0.00
15min,AgWx,beryljct,423,15SEP2020:18:30:00,80.0,13.06,78.6,79.1,77.6,79.1,75.9,18,24,13,0.439,30.3,37.4,23.7,3.31,2.1,202,20,3.3,0.00014,0.00028,66.8,62.2,13,28,.,.,4.27,0.00,0.00
15min,AgWx,beryljct,423,15SEP2020:18:45:00,76.2,13.02,69.5,70.0,71.9,79.0,65.4,28,49,13,0.714,35.6,46.8,23.8,4.735,3.8,236,6.3,6.4,0.00036,0.00057,66.6,62.3,13,6,.,.,4.27,0.01,0.00
15min,AgWx,beryljct,423,15SEP2020:19:00:00,72.6,13.01,65.2,66.9,68.6,72.2,65.6,30,40,19,0.747,35.8,41.2,27.8,4.867,4.9,245,4.1,6.3,0.00043,0.00065,66.4,62.4,13,1,.,.,4.28,0.00,0.00
15min,AgWx,beryljct,423,15SEP2020:19:15:00,69.9,13,65.7,65.3,66.0,67.4,64.2,34,41,28,0.724,36.5,40.1,33.4,3.223,4.0,230,11,5.6,0.00028,0.00044,66.2,62.5,13,0,.,.,4.28,0.01,0.00
15min,AgWx,beryljct,423,15SEP2020:19:30:00,68.6,13,70.5,69.9,68.4,70.3,65.4,29,34,25,0.657,34.6,36.7,32.6,6.774,6.0,222,7.0,7.8,0.00057,0.00081,65.9,62.6,13,0,.,.,4.28,0.00,0.00
15min,AgWx,beryljct,423,15SEP2020:19:45:00,68.9,12.98,71.9,72.5,71.8,73.1,70.0,23,26,21,0.623,32.1,33.4,30.1,6.84,7.5,225,6.8,10.4,0.00084,0.00115,65.6,62.7,13,0,.,.,4.28,0.00,0.00
15min,AgWx,beryljct,423,15SEP2020:20:00:00,69.8,12.97,72.0,73.0,73.1,74.1,72.4,21,23,20,0.611,31.4,32.4,30.0,7.103,8.1,230,6.6,10.9,0.00093,0.00127,65.3,62.8,13,0,.,.,4.28,0.00,0.00
15min,AgWx,beryljct,423,15SEP2020:20:15:00,70.7,12.97,73.8,73.9,73.7,74.3,72.7,21,22,19,0.615,31.2,32.3,29.1,9.16,9.1,227,8.0,12.5,0.00105,0.00140,65.0,62.9,13,0,.,.,4.28,0.00,0.00
15min,AgWx,beryljct,423,15SEP2020:20:30:00,71.4,12.97,74.0,73.4,73.6,74.1,73.0,21,23,20,0.598,31.6,32.7,30.4,8.7,8.6,232,7.8,12.3,0.00100,0.00136,64.8,62.9,13,0,.,.,4.28,0.00,0.00
15min,AgWx,beryljct,423,15SEP2020:20:45:00,71.8,12.96,74.6,74.0,73.9,74.4,73.4,21,22,20,0.585,31.5,32.5,30.5,10.65,9.4,240,7.9,12.0,0.00108,0.00144,64.5,63.0,13,0,.,.,4.28,0.00,0.00
15min,AgWx,beryljct,423,15SEP2020:21:00:00,72.1,12.95,73.7,74.4,74.0,74.4,73.6,21,22,20,0.602,31.6,32.6,30.4,8.72,9.9,241,8.4,13.7,0.00113,0.00150,64.3,63.0,13,0,.,.,4.27,0.00,0.00
15min,AgWx,beryljct,423,15SEP2020:21:15:00,72.5,12.95,74.2,74.2,74.4,74.7,74.1,21,21,20,0.599,31.6,32.5,30.9,11.03,10.6,242,8.4,13.3,0.00121,0.00158,64.0,63.1,13,0,.,.,4.28,0.00,0.00
15min,AgWx,beryljct,423,15SEP2020:21:30:00,72.7,12.93,73.9,73.7,74.1,74.6,73.7,21,22,20,0.606,31.7,32.6,30.7,10.81,10.3,244,7.9,13.5,0.00117,0.00154,63.8,63.1,13,0,.,.,4.28,0.00,0.00
15min,AgWx,beryljct,423,15SEP2020:21:45:00,72.6,12.94,72.0,72.3,73.0,74.0,72.3,22,23,21,0.627,32.3,33.2,31.2,7.738,8.9,252,8.7,12.5,0.00101,0.00135,63.6,63.2,13,0,.,.,4.27,0.00,0.00
15min,AgWx,beryljct,423,15SEP2020:22:00:00,71.4,12.93,57.2,57.9,66.3,72.3,57.9,28,36,23,0.591,31.7,33.4,28.9,11.99,4.9,357,77,12.0,0.00044,0.00066,63.4,63.1,13,0,.,.,4.28,0.01,0.00
15min,AgWx,beryljct,423,15SEP2020:22:15:00,67.7,12.92,53.6,54.7,56.5,59.0,54.7,40,46,33,0.642,32.6,34.5,29.8,5.853,8.9,58,6.4,14.2,0.00051,0.00066,63.2,63.2,13,0,.,.,4.29,0.01,0.00
15min,AgWx,beryljct,423,15SEP2020:22:30:00,64.2,12.92,56.5,55.1,55.9,58.6,53.8,40,49,32,0.625,31.7,35.7,28.7,2.192,3.9,20,81,6.6,0.00017,0.00027,63.0,63.2,13,0,.,.,4.28,0.00,0.00
15min,AgWx,beryljct,423,15SEP2020:22:45:00,61.6,12.91,57.5,57.8,55.7,59.9,52.7,43,55,29,0.618,33.0,37.2,27.6,4.801,3.8,263,22,5.2,0.00014,0.00024,62.7,63.2,13,0,.,.,4.29,0.00,0.00
15min,AgWx,beryljct,423,15SEP2020:23:00:00,59.9,12.91,53.9,55.3,56.1,57.8,55.3,41,45,37,0.664,32.6,34.1,31.4,3.551,5.7,239,11,7.4,0.00032,0.00045,62.5,63.2,13,0,.,.,4.28,0.00,0.00
15min,AgWx,beryljct,423,15SEP2020:23:15:00,59.3,12.9,63.7,62.8,59.8,63.4,54.0,32,48,25,0.526,29.6,34.9,26.6,5.415,5.3,182,16,8.4,0.00039,0.00055,62.3,63.2,13,0,.,.,4.29,0.00,0.00
15min,AgWx,beryljct,423,15SEP2020:23:30:00,59.9,12.88,60.5,60.8,62.2,63.8,60.4,30,34,25,0.588,29.9,32.8,27.4,4.231,4.2,119,52,7.2,0.00030,0.00046,62.0,63.2,13,0,.,.,4.28,0.00,0.00
15min,AgWx,bigpiney,439,15SEP2020:00:00:00,47.0,12.65,43.6,40.3,42.4,46.5,39.4,49,55,41,0.464,24.4,25.3,23.7,4.012,3.5,151,26,5.7,0.00007,0.00011,49.8,49.1,45,0,0,0.0,8.27,0.00,0.00
15min,AgWx,bigpiney,439,15SEP2020:00:15:00,46.2,12.64,39.9,40.4,43.1,44.9,40.4,47,54,44,0.429,24.3,25.4,23.3,5.459,3.5,170,20,5.5,0.00007,0.00012,49.7,49.1,45,0,0,0.0,8.27,0.00,0.00
15min,AgWx,bigpiney,439,15SEP2020:00:30:00,45.3,12.63,38.5,40.5,43.5,47.1,40.2,46,52,40,0.441,24.1,25.0,22.9,5.239,4.8,199,16,6.2,0.00016,0.00023,49.7,49.1,45,0,0,0.0,8.27,0.00,0.00
15min,AgWx,bigpiney,439,15SEP2020:00:45:00,44.1,12.62,40.3,41.3,41.3,44.7,39.1,50,55,44,0.441,24.1,25.1,23.3,5.261,4.8,214,7.6,5.7,0.00012,0.00018,49.6,49.1,45,0,0,0.0,8.27,0.00,0.00
15min,AgWx,bigpiney,439,15SEP2020:01:00:00,42.9,12.62,40.2,39.6,38.7,41.1,35.6,56,61,50,0.446,24.2,25.0,22.4,3.047,3.9,235,35,5.7,0.00005,0.00009,49.6,49.1,45,0,0,0.0,8.27,0.00,0.00
15min,AgWx,bigpiney,439,15SEP2020:01:15:00,42.0,12.61,41.1,41.0,40.6,41.3,39.7,48,54,46,0.397,22.6,24.2,21.6,4.582,3.4,326,16,4.6,0.00006,0.00010,49.5,49.1,45,0,0,0.0,8.27,0.00,0.00
15min,AgWx,bigpiney,439,15SEP2020:01:30:00,41.4,12.6,40.9,41.8,41.6,42.1,40.6,45,47,44,0.397,21.8,22.2,21.2,5.985,5.0,295,5.5,6.1,0.00016,0.00023,49.5,49.1,45,0,0,0.0,8.27,0.00,0.00
15min,AgWx,bigpiney,439,15SEP2020:01:45:00,41.1,12.59,44.5,44.1,41.8,44.1,41.0,44,45,40,0.394,21.5,21.8,21.2,5.174,5.7,285,2.1,6.5,0.00020,0.00027,49.4,49.1,45,0,0,0.0,8.27,0.00,0.00
15min,AgWx,bigpiney,439,15SEP2020:02:00:00,40.8,12.59,35.1,34.3,39.6,44.3,34.0,48,60,40,0.403,21.3,22.4,20.1,7.147,5.8,245,17,7.1,0.00018,0.00024,49.3,49.1,45,0,0,0.0,8.27,0.00,0.00
15min,AgWx,bigpiney,439,15SEP2020:02:15:00,40.1,12.57,34.1,33.5,34.7,36.3,33.2,59,63,56,0.402,21.9,22.5,21.5,6.335,6.2,234,7.7,7.8,0.00011,0.00014,49.3,49.1,45,0,0,0.0,8.27,0.00,0.00
15min,AgWx,bigpiney,439,15SEP2020:02:30:00,39.2,12.56,33.6,33.2,32.6,33.7,32.2,65,66,61,0.410,22.0,22.4,21.4,6.489,6.3,225,4.6,7.5,0.00007,0.00010,49.2,49.1,45,0,0,0.0,8.27,0.00,0.00
15min,AgWx,bigpiney,439,15SEP2020:02:45:00,38.6,12.55,36.2,35.7,34.9,35.7,33.3,60,64,57,0.406,22.4,22.8,22.1,7.695,7.1,226,4.5,8.4,0.00012,0.00016,49.1,49.0,45,0,0,0.0,8.27,0.00,0.00
15min,AgWx,bigpiney,439,15SEP2020:03:00:00,38.4,12.54,34.8,34.4,34.9,36.0,33.9,59,61,56,0.400,21.9,22.1,21.6,7.103,6.8,225,5.9,8.4,0.00012,0.00016,49.1,49.1,45,0,0,0.0,8.27,0.00,0.00
15min,AgWx,bigpiney,439,15SEP2020:03:15:00,38.3,12.54,35.3,35.3,35.0,36.5,33.6,58,62,54,0.393,21.7,22.1,21.2,5.524,4.8,244,19,7.1,0.00007,0.00010,49.0,49.0,45,0,0,0.0,8.27,0.00,0.00
15min,AgWx,bigpiney,439,15SEP2020:03:30:00,38.1,12.52,36.0,36.2,35.5,36.4,34.7,56,57,55,0.397,21.5,21.7,21.2,5.393,5.5,232,6.8,6.4,0.00010,0.00014,48.9,49.0,45,0,0,0.0,8.27,0.00,0.00
15min,AgWx,bigpiney,439,15SEP2020:03:45:00,37.9,12.52,34.1,34.5,35.6,36.3,34.5,56,57,55,0.387,21.2,21.6,20.6,2.17,4.5,241,11,5.6,0.00007,0.00011,48.9,49.0,45,0,0,0.0,8.27,0.00,0.00
15min,AgWx,bigpiney,439,15SEP2020:04:00:00,37.6,12.5,37.7,37.0,36.0,37.1,34.4,54,58,51,0.384,21.1,21.6,20.8,2.631,1.4,48,51,2.6,-0.00010,-0.00012,48.8,49.0,45,0,0,0.0,8.27,0.00,0.00
15min,AgWx,bigpiney,439,15SEP2020:04:15:00,37.2,12.49,37.1,36.5,37.4,38.4,36.4,50,52,48,0.377,20.4,20.8,19.7,1.403,1.9,65,24,3.1,-0.00006,-0.00006,48.7,49.0,45,0,0,0.0,8.27,0.00,0.00
15min,AgWx,bigpiney,439,15SEP2020:04:30:00,37.0,12.48,39.3,38.9,37.5,38.9,36.5,50,52,48,0.384,20.7,21.0,20.3,2.411,2.0,149,16,4.1,-0.00005,-0.00004,48.7,49.0,45,0,0,0.0,8.27,0.00,0.00
15min,AgWx,bigpiney,439,15SEP2020:04:45:00,37.0,12.47,33.9,35.1,37.8,38.9,34.9,49,54,47,0.373,20.5,21.0,19.1,2.083,2.2,156,31,3.5,-0.00003,-0.00002,48.6,49.0,45,0,0,0.0,8.27,0.00,0.00
15min,AgWx,bigpiney,439,15SEP2020:05:00:00,36.7,12.45,38.8,38.0,37.9,39.5,35.2,49,54,46,0.377,20.4,20.8,19.5,1.096,0.7,170,34,2.1,-0.00017,-0.00024,48.5,49.0,45,0,0,0.0,8.27,0.00,0.00
15min,AgWx,bigpiney,439,15SEP2020:05:15:00,36.2,12.45,35.1,35.5,36.7,39.4,32.7,51,58,47,0.379,20.2,21.0,18.1,1.885,1.4,36,12,2.7,-0.00010,-0.00012,48.4,48.9,45,0,0,0.0,8.27,0.00,0.00
15min,AgWx,bigpiney,439,15SEP2020:05:30:00,35.7,12.43,35.2,35.6,35.6,36.1,35.2,54,55,53,0.381,20.6,20.8,20.1,3.42,2.1,350,19,3.4,-0.00005,-0.00005,48.4,49.0,45,0,0,0.0,8.27,0.00,0.00
15min,AgWx,bigpiney,439,15SEP2020:05:45:00,35.4,12.42,35.3,35.6,35.6,35.9,35.4,54,55,53,0.377,20.6,21.0,20.2,4.034,3.8,324,4.6,4.5,0.00005,0.00008,48.3,48.9,45,0,0,0.0,8.27,0.00,0.00
15min,AgWx,bigpiney,439,15SEP2020:06:00:00,35.1,12.41,35.3,35.9,35.9,36.8,35.4,52,53,51,0.375,20.2,20.5,19.8,3.683,3.6,322,11,4.6,0.00005,0.00008,48.2,48.9,45,1,0,0.0,8.27,0.00,0.00
15min,AgWx,bigpiney,439,15SEP2020:06:15:00,35.0,12.41,36.8,36.3,35.3,36.3,33.6,53,56,51,0.372,20.0,20.5,18.7,2.762,2.0,258,26,3.6,-0.00004,-0.00003,48.1,48.9,45,7,0,0.0,8.27,0.00,0.00
15min,AgWx,bigpiney,439,15SEP2020:06:30:00,34.6,12.42,33.5,32.1,35.1,36.7,30.3,54,64,51,0.379,19.9,20.8,18.5,3.529,3.6,238,6.8,4.9,0.00003,0.00023,48.1,48.9,45,22,0,0.0,8.27,0.00,0.00
15min,AgWx,bigpiney,439,15SEP2020:06:45:00,34.0,12.49,30.1,31.1,30.6,32.4,29.4,66,68,60,0.377,20.5,21.2,19.5,1.578,3.1,236,4.1,5.1,0.00006,0.00017,48.0,48.9,45,48,0,0.0,8.27,0.00,0.00
15min,AgWx,bigpiney,439,15SEP2020:07:00:00,33.7,12.63,31.2,33.3,32.7,34.4,29.9,62,68,58,0.391,21.0,21.5,20.4,1.381,1.2,233,15,3.2,0.00012,0.00018,47.9,48.8,45,81,0,0.0,8.27,0.00,0.00
15min,AgWx,bigpiney,439,15SEP2020:07:15:00,33.8,12.87,38.9,37.8,36.2,38.1,32.4,54,64,49,0.395,21.2,22.0,20.8,0.943,0.5,227,9.2,1.8,0.00025,0.00030,47.8,48.8,45,117,0,0.0,8.27,0.00,0.00
15min,AgWx,bigpiney,439,15SEP2020:07:30:00,34.5,13.28,40.2,40.0,39.3,40.1,37.8,48,58,45,0.483,21.3,26.3,20.6,0,0.1,192,2.6,1.2,0.00044,0.00048,47.8,48.8,45,158,0,0.0,8.27,0.00,0.00
15min,AgWx,bigpiney,439,15SEP2020:07:45:00,36.1,13.53,42.1,41.6,41.1,41.7,40.1,50,57,47,0.422,23.9,26.1,22.4,2.674,0.8,102,17,2.7,0.00072,0.00082,47.7,48.8,45,201,0,0.0,8.27,0.00,0.00
15min,AgWx,bigpiney,439,15SEP2020:08:00:00,38.5,13.74,43.1,43.0,42.0,43.0,41.6,48,50,46,0.448,23.9,24.9,22.6,1.447,2.1,121,21,4.4,0.00104,0.00126,47.6,48.7,45,247,0,0.0,8.27,0.00,0.00
15min,AgWx,bigpiney,439,15SEP2020:08:15:00,41.3,14.67,45.6,45.0,44.0,45.0,43.0,47,50,43,0.471,25.1,26.6,23.6,1.337,1.8,103,21,3.3,0.00132,0.00155,47.6,48.8,45,303,0,0.0,8.27,0.00,0.00
15min,AgWx,bigpiney,439,15SEP2020:08:30:00,44.1,14.67,46.2,46.9,45.8,47.0,45.0,45,47,42,0.474,25.6,27.4,23.6,4.297,2.0,97,28,4.3,0.00162,0.00189,47.5,48.7,45,355,0,0.0,8.27,0.00,0.00
15min,AgWx,bigpiney,439,15SEP2020:08:45:00,46.9,14.63,48.3,48.2,47.4,48.5,46.4,42,46,39,0.466,25.5,28.1,23.5,3.113,2.1,97,27,3.9,0.00194,0.00225,47.5,48.8,45,403,0,0.0,8.27,0.00,0.00